{"data":{"norad_id":56406,"epoch":"2026-05-25T05:10:11.443008Z","epoch_age_seconds":59644,"freshness":"FRESH","line1":"1 56406U 23061AJ  26145.21541022 -.00000461  00000+0 -72289-5 0  9993","line2":"2 56406  43.0007 115.2455 0000790 256.7009 103.3754 15.27568579168570","mean_motion":15.27568579,"eccentricity":7.9e-5,"inclination_deg":43.0007,"raan_deg":115.2455,"arg_perigee_deg":256.7009,"mean_anomaly_deg":103.3754,"bstar":-7.2289e-6,"rev_number":16857,"period_min":94.267453507238,"perigee_km":482.54125843212,"apogee_km":483.6253312387,"semimajor_km":6861.2202948354,"source":"CELESTRAK","updated_at":"2026-05-25T13:38:18.016383Z"}}